Starlink 2461

operational
NORAD ID: 48428 Int'l Des: 2021-040 Owner: SPXS Country: US Constellation: starlink
LEOCIRCULARSTARLINK_TYPE

Über Starlink 2461

Beschreibung wird geladen...

Live-Position

3D-Globus wird geladen...

Nächste Überflüge

Höhenverlauf

Altitude vs Time

uPlot chart will show altitude changes over time

Zweizeiliger Elementsatz

1 48428U 21040A 25299.63628073 .00000977 00000-0 84480-4 0 9996
2 48428 53.0553 68.4054 0001163 88.1391 271.9731 15.06394743246359
Epoch: 26. Okt. 2025 • Age: 14 hours

Aktueller Status

Höhe 557.7 km
Geschwindigkeit 7.58 km/s
Subsatellitenpunkt -32.08°S, 79.3°W
Startdatum 9. Mai 2021
Alter 4.4 years
Typ internet

Technische Details

Klassifizierung Payload
Masse 260.00 kg
Trockenmasse 248.00 kg
Gesamtmasse 260.00 kg
Länge 0.20 m
Durchmesser 2.80 m
Spannweite 9.00 m
Form Box + pan
Hersteller SPXS
Bus-Typ Starlink
Phasenstatus In Orbit
Besitzer/Staat SPXS/US

Große Konstellationen

Loading constellations...